User: anonymous   Login
Location: Park Creek Village Mobile Home Park
(38.2885°N, 122.4714°W)
Time: 01:29:38
(UTC+00:00)
Language:

Cosmos 1743 - Orbit

View from above orbital plane
View from above orbital plane
View from above satellite
View from above satellite

Ground track
Ground track

The orbit data is extracted from the following two-line orbital elements,

1 16719U 86034A   20047.59650245 +.00000114 +00000-0 +42610-5 0  9998
2 16719 082.5523 117.0322 0013111 142.3826 331.9134 15.15601675842971
Epoch (UTC): 16 February 2020 14:18:57
Eccentricity: 0.0013111
inclination: 82.5523°
perigee height: 510 km
apogee height: 528 km
right ascension of ascending node: 117.0322°
argument of perigee: 142.3826°
revolutions per day: 15.15601675
mean anomaly at epoch: 331.9134°
orbit number at epoch: 84297

The dashed part of the orbit path shows where the satellite is in the earth's shadow,  

DLR